(361753) = 2007 YJ21

Discovered at Mount Lemmon on 2007-12-04 by Mt. Lemmon Survey.

Orbit

Orbit type: Main Belt

Note: WebGL enabled browser required.

epoch2023-09-13.0
epoch JD2460200.5
perihelion date2021-04-27.52677
perihelion JD2459332.02677
argument of perihelion (°)106.95736
ascending node (°)109.47384
inclination (°)3.12789
eccentricity0.0822356
perihelion distance (AU)2.3323800
Tisserand w.r.t. Jupiter3.4
ΔV w.r.t. Earth (km/sec)9.6
semimajor axis (AU)2.5413713
mean anomaly (°)211.27986
mean daily motion (°/day)0.24327730
aphelion distance (AU)2.750
period (years)4.05
P-vector [x]-0.80322706
P-vector [y]-0.56517838
P-vector [z]-0.18814806
Q-vector [x]0.59344744
Q-vector [y]-0.73198155
Q-vector [z]-0.33469858
absolute magnitude17.33
phase slope0.15
uncertainty0
referenceMPEC 2024-A26
observations used261
oppositions15
arc length (days)7321
first opposition used2003
last opposition used2024
residual rms (arc-secs)0.72
perturbers coarse indicatorM-v
perturbers precise indicator003Ek
first observation date used2003-12-17.0
last observation date used2024-01-02.0
computer nameMPCLINUX
JD of orbit computation2456937.417447
perihelion JD uncertainty (days)9.8158E-05
argument of perihelion uncertainty (°)7.3056E-05
ascending node uncertainty (°)6.9392E-05
inclination uncertainty (°)3.7996E-06
eccentricity uncertainty 4.4192E-08
perihelion distance uncertainty (AU)1.0180E-07
Minimum Orbit Intersection Distances (in AU)
for orbit epoch: 2460200.5, reference: E2023-YA3
Mercury1.88275
Venus1.60956
Earth1.32635
Mars0.71543
Jupiter2.21276
Saturn6.36538
Uranus16.0247
Neptune27.0898

Observations

269 total observations over interval: 2003 12 17.43691 – 2024 01 02.318780
These data are available for download (format description).

Date (UT) J2000 RA J2000 Dec Magn Location Ref
2003 12 17.43691 07 52 43.18 +20 30 02.1 21.6 V 291 – LPL/Spacewatch II MPS 428356
2003 12 17.46137 07 52 42.20 +20 30 06.2 21.7 V 291 – LPL/Spacewatch II MPS 428356
2003 12 17.48566 07 52 41.28 +20 30 10.3 21.8 V 291 – LPL/Spacewatch II MPS 428356
2005 06 27.17574 16 00 22.24 -17 40 35.2 20.8 V 691 – Steward Observatory, Kitt Peak-Spacewatch MPS 428356
2005 06 27.19118 16 00 21.76 -17 40 36.2 20.8 V 691 – Steward Observatory, Kitt Peak-Spacewatch MPS 428356
2005 06 27.20675 16 00 21.27 -17 40 37.1 21.1 V 691 – Steward Observatory, Kitt Peak-Spacewatch MPS 428356
2007 12 04.38388 07 32 37.28 +20 45 17.2 21.8 V G96 – Mt. Lemmon Survey MPS 242233
2007 12 04.38985 07 32 37.17 +20 45 18.0 21.2 V G96 – Mt. Lemmon Survey MPS 242233
2007 12 04.39581 07 32 36.96 +20 45 19.0 21.2 V G96 – Mt. Lemmon Survey MPS 242233
2007 12 04.40184 07 32 36.81 +20 45 19.2 21.7 V G96 – Mt. Lemmon Survey MPS 242233
2007 12 04.44115 07 32 35.71 +20 45 23.8 21.5 V 691 – Steward Observatory, Kitt Peak-Spacewatch MPS 242233
2007 12 04.45877 07 32 35.24 +20 45 25.8 21.0 V 691 – Steward Observatory, Kitt Peak-Spacewatch MPS 242233
2007 12 04.47637 07 32 34.74 +20 45 26.8 21.2 V 691 – Steward Observatory, Kitt Peak-Spacewatch MPS 242233
2007 12 16.42750 07 25 27.12 +21 11 22.7 21.1 V 691 – Steward Observatory, Kitt Peak-Spacewatch MPS 231923
2007 12 16.44858 07 25 26.13 +21 11 25.9 21.3 V 691 – Steward Observatory, Kitt Peak-Spacewatch MPS 231923
2007 12 16.47311 07 25 24.97 +21 11 29.4 21.2 V 691 – Steward Observatory, Kitt Peak-Spacewatch MPS 231923
2007 12 20.41671 07 22 15.11 +21 21 53.0 21.0 V 691 – Steward Observatory, Kitt Peak-Spacewatch MPS 231923
2007 12 20.43436 07 22 14.21 +21 21 56.1 21.1 V 691 – Steward Observatory, Kitt Peak-Spacewatch MPS 231923
2007 12 20.45203 07 22 13.33 +21 21 58.7 20.6 V 691 – Steward Observatory, Kitt Peak-Spacewatch MPS 231923
2008 01 11.12452 07 00 39.51 +22 24 16.2 20.6 V 691 – Steward Observatory, Kitt Peak-Spacewatch MPS 242233
2008 01 11.14217 07 00 38.35 +22 24 19.1 20.7 V 691 – Steward Observatory, Kitt Peak-Spacewatch MPS 242233
2008 01 11.15982 07 00 37.24 +22 24 22.3 20.6 V 691 – Steward Observatory, Kitt Peak-Spacewatch MPS 242233
2008 01 13.20462 06 58 29.38 +22 29 58.2 21.0 V G96 – Mt. Lemmon Survey MPS 242233
2008 01 13.20959 06 58 29.06 +22 29 59.0 20.6 V G96 – Mt. Lemmon Survey MPS 242233
2008 01 13.21463 06 58 28.77 +22 30 00.0 20.7 V G96 – Mt. Lemmon Survey MPS 242233
2008 01 13.21968 06 58 28.52 +22 30 02.7 19.6 V G96 – Mt. Lemmon Survey MPS 242233
2009 04 18.43403 16 17 08.62 -16 57 43.9 20.7 V G96 – Mt. Lemmon Survey MPS 428356
2009 04 18.44087 16 17 08.41 -16 57 43.5 20.7 V G96 – Mt. Lemmon Survey MPS 428356
2009 04 18.44781 16 17 08.26 -16 57 43.1 20.5 V G96 – Mt. Lemmon Survey MPS 428356
2009 06 24.21733 15 28 07.17 -15 32 44.0 20.9 V G96 – Mt. Lemmon Survey MPS 428356
2009 06 24.22436 15 28 07.03 -15 32 44.7 21.4 V G96 – Mt. Lemmon Survey MPS 428356
2009 06 24.23140 15 28 06.88 -15 32 45.3 20.6 V G96 – Mt. Lemmon Survey MPS 428356
2009 06 24.23856 15 28 06.74 -15 32 46.1 20.9 V G96 – Mt. Lemmon Survey MPS 428356
2010 09 30.25515 00 04 17.00 -04 40 07.7 20.1 V G96 – Mt. Lemmon Survey MPS 428356
2010 09 30.26086 00 04 16.68 -04 40 09.9 20.4 V G96 – Mt. Lemmon Survey MPS 428356
2010 09 30.26655 00 04 16.35 -04 40 11.2 20.8 V G96 – Mt. Lemmon Survey MPS 428356
2010 09 30.27229 00 04 16.06 -04 40 13.4 20.6 V G96 – Mt. Lemmon Survey MPS 428356
2011 12 22.84847 06 49 08.38 +21 53 34.7 20.8 R G36 – Calar Alto-CASADO MPS 500178
2011 12 22.86766 06 49 07.22 +21 53 37.4 20.5 R G36 – Calar Alto-CASADO MPS 500178
2011 12 22.88961 06 49 05.85 +21 53 40.7 20.5 R G36 – Calar Alto-CASADO MPS 500178
2011 12 22.92082 06 49 03.95 +21 53 45.0 20.3 R G36 – Calar Alto-CASADO MPS 500178
2011 12 22.95195 06 49 02.03 +21 53 49.5 20.5 R G36 – Calar Alto-CASADO MPS 500178
2011 12 22.98317 06 49 00.10 +21 53 53.7 20.5 R G36 – Calar Alto-CASADO MPS 500178
2011 12 23.01439 06 48 58.16 +21 53 58.1 20.2 R G36 – Calar Alto-CASADO MPS 500178
2011 12 23.03766 06 48 56.72 +21 54 01.2 20.6 R G36 – Calar Alto-CASADO MPS 500178
2011 12 23.06237 06 48 55.18 +21 54 04.4 20.5 R G36 – Calar Alto-CASADO MPS 500178
2011 12 23.08704 06 48 53.64 +21 54 07.6 20.3 R G36 – Calar Alto-CASADO MPS 500178
2011 12 23.11202 06 48 52.10 +21 54 10.9 20.5 R G36 – Calar Alto-CASADO MPS 500178
2011 12 23.13657 06 48 50.60 +21 54 14.0 20.2 R G36 – Calar Alto-CASADO MPS 500178
2011 12 23.15754 06 48 49.30 +21 54 16.8 20.3 R G36 – Calar Alto-CASADO MPS 500178
2011 12 23.86088 06 48 07.21 +21 55 51.1 20.3 R G36 – Calar Alto-CASADO MPS 500178
2011 12 23.91322 06 48 03.96 +21 55 58.4 20.3 R G36 – Calar Alto-CASADO MPS 500178
2011 12 23.93963 06 48 02.32 +21 56 02.1 20.5 R G36 – Calar Alto-CASADO MPS 500178
2011 12 23.96519 06 48 00.70 +21 56 05.5 20.5 R G36 – Calar Alto-CASADO MPS 500178
2011 12 23.99066 06 47 59.12 +21 56 09.0 20.3 R G36 – Calar Alto-CASADO MPS 500178
2011 12 24.01457 06 47 57.62 +21 56 12.3 20.4 R G36 – Calar Alto-CASADO MPS 500178
2011 12 24.03146 06 47 56.57 +21 56 14.6 20.3 R G36 – Calar Alto-CASADO MPS 500178
2011 12 24.04834 06 47 55.50 +21 56 17.0 20.2 R G36 – Calar Alto-CASADO MPS 500178
2011 12 24.06662 06 47 54.34 +21 56 19.4 20.4 R G36 – Calar Alto-CASADO MPS 500178
2011 12 24.08477 06 47 53.21 +21 56 21.8 20.4 R G36 – Calar Alto-CASADO MPS 500178
2011 12 24.10308 06 47 52.06 +21 56 24.1 20.5 R G36 – Calar Alto-CASADO MPS 500178
2011 12 24.12138 06 47 50.92 +21 56 26.4 20.2 R G36 – Calar Alto-CASADO MPS 500178
2011 12 24.13979 06 47 49.77 +21 56 29.0 20.4 R G36 – Calar Alto-CASADO MPS 500178
2011 12 24.15484 06 47 48.83 +21 56 30.9 20.5 R G36 – Calar Alto-CASADO MPS 500178
2011 12 24.16757 06 47 48.02 +21 56 32.5 20.4 R G36 – Calar Alto-CASADO MPS 500178
2011 12 24.18036 06 47 47.25 +21 56 34.2 20.1 R G36 – Calar Alto-CASADO MPS 500178
2011 12 24.19314 06 47 46.44 +21 56 35.7 20.2 R G36 – Calar Alto-CASADO MPS 500178
2011 12 24.21671 06 47 44.98 +21 56 38.6 20.5 R G36 – Calar Alto-CASADO MPS 500178
2011 12 24.24197 06 47 43.44 +21 56 42.4 20.3 R G36 – Calar Alto-CASADO MPS 500178
2013 04 15.50357 15 42 41.349 -14 53 07.08 20.6 w F51 – Pan-STARRS 1, Haleakala MPS 464075
2013 04 15.51782 15 42 40.889 -14 53 05.02 20.6 w F51 – Pan-STARRS 1, Haleakala MPS 464075
2013 04 15.53209 15 42 40.418 -14 53 03.08 20.4 w F51 – Pan-STARRS 1, Haleakala MPS 464075
2013 04 15.54634 15 42 39.959 -14 53 01.22 20.4 w F51 – Pan-STARRS 1, Haleakala MPS 464075
2013 04 20.68624 15 39 44.71 -14 40 13.1 19.8 V E12 – Siding Spring Survey MPS 465011
2013 04 20.69900 15 39 44.28 -14 40 11.9 20.2 V E12 – Siding Spring Survey MPS 465011
2013 04 20.71191 15 39 43.70 -14 40 10.0 20.4 V E12 – Siding Spring Survey MPS 465011
2013 04 20.72469 15 39 43.12 -14 40 08.2 20.4 V E12 – Siding Spring Survey MPS 465011
2013 05 02.37412 15 30 53.35 -14 07 55.1 20.2 V G96 – Mt. Lemmon Survey MPS 466826
2013 05 02.37939 15 30 53.10 -14 07 53.7 20.1 V G96 – Mt. Lemmon Survey MPS 466826
2013 05 02.38465 15 30 52.74 -14 07 52.6 20.3 V G96 – Mt. Lemmon Survey MPS 466826
2013 05 02.39000 15 30 52.52 -14 07 52.2 20.2 V G96 – Mt. Lemmon Survey MPS 466826
2013 05 08.43474 15 25 28.355 -13 50 32.48 20.2 w F51 – Pan-STARRS 1, Haleakala MPS 467457
2013 05 08.44883 15 25 27.541 -13 50 30.14 20.0 w F51 – Pan-STARRS 1, Haleakala MPS 467457
2013 05 08.46292 15 25 26.724 -13 50 27.79 20.1 w F51 – Pan-STARRS 1, Haleakala MPS 467457
2013 05 15.34340 15 19 02.96 -13 31 53.1 20.0 V G96 – Mt. Lemmon Survey MPS 468651
2013 05 15.35042 15 19 02.53 -13 31 51.9 19.9 V G96 – Mt. Lemmon Survey MPS 468651
2013 05 15.35741 15 19 02.13 -13 31 50.8 20.1 V G96 – Mt. Lemmon Survey MPS 468651
2013 05 15.36444 15 19 01.74 -13 31 49.9 19.9 V G96 – Mt. Lemmon Survey MPS 468651
2013 06 05.28698 15 02 07.83 -12 56 31.4 20.6 V G96 – Mt. Lemmon Survey MPS 469861
2013 06 05.29260 15 02 07.54 -12 56 31.0 20.4 V G96 – Mt. Lemmon Survey MPS 469861
2013 06 05.29790 15 02 07.40 -12 56 30.7 20.5 V G96 – Mt. Lemmon Survey MPS 469861
2013 06 05.30326 15 02 07.18 -12 56 30.3 20.5 V G96 – Mt. Lemmon Survey MPS 469861
2014 08 27.48914 00 08 49.009 -03 39 04.74 21.5 w F51 – Pan-STARRS 1, Haleakala MPS 529642
